Orbital elements: 2010 LE15 PHA, Earth MOID = 0.0230 AU Epoch 2010 July 23.0 TT = JDT 2455400.5 MPC M 226.37049 (2000.0) P Q n 1.22614475 Peri. 328.42468 -0.23126581 -0.95861710 a 0.8645197 Node 134.34503 +0.93397198 -0.26654579 e 0.2753742 Incl. 13.42531 +0.27241966 +0.10003296 P 0.80 H 18.8 G 0...
|
|
|
|
|
|
Asteroid 2010 LS108
(Preview)
|
Solar System
|
0
|
1670
|
|
|
Orbital elements: 2010 LS108 Epoch 2010 July 23.0 TT = JDT 2455400.5 MPC M 335.51798 (2000.0) P Q n 0.21852430 Peri. 36.95836 +0.24946958 +0.73856937 a 2.7298339 Node 255.83536 -0.96837645 +0.19257764 e 0.5025949 Incl. 40.23786 +0.00346248 +0.64608756 P 4.51 H 16.4 G 0.15 U 9 [url=http://www.m...
|
|
|
|
|
|
Comet C/2010 L4 (WISE)
(Preview)
|
Solar System
|
7
|
2017
|
|
|
Orbital elements: C/2010 L4 (WISE) T 2010 Jan. 24.066 TT MPC q 2.66207 (2000.0) P Q Peri. 85.253 +0.118748 +0.607679 Node 126.567 -0.212232 -0.757040 e 1.0 Incl. 102.120 +0.969978 -0.240035 From 33 observations 2010 June 15-18. [url=http://www.minorplanetcenter.org/mpec/K10/K10M20.html...
|
|
|
|
|
|
Asteroid 2010 LJ109
(Preview)
|
Solar System
|
0
|
1821
|
|
|
Orbital elements: 2010 LJ109 Epoch 2010 July 23.0 TT = JDT 2455400.5 MPC M 355.11846 (2000.0) P Q n 0.01988028 Peri. 152.91558 -0.93699901 +0.21056785 a 13.4954604 Node 42.40705 -0.34488154 -0.68456195 e 0.3290829 Incl. 24.41322 +0.05558395 -0.69787973 P 49.58 H 10.1 G 0.15 U 7 [url=http://www...
|
|
|
|
|
|
Comet C/2010 L5 (WISE)
(Preview)
|
Solar System
|
2
|
1991
|
|
|
Orbital elements: C/2010 L5 (WISE) T 2010 Apr. 26.626 TT MPC q 0.83835 (2000.0) P Q Peri. 220.563 +0.921155 -0.304221 Node 206.152 +0.002663 -0.618758 e 1.0 Incl. 146.583 -0.389187 -0.724285 From 9 observations 2010 June 14-23.[url=http://www.minorplanetcenter.org/mpec/K10/K10M50.html...
|
|
|
|
|
|
Asteroid 2010 AB78
(Preview)
|
Solar System
|
5
|
3646
|
|
|
Orbital elements: 2010 AB78 Earth MOID = 0.2084 AU Epoch 2010 July 23.0 TT = JDT 2455400.5 MPC M 25.06138 (2000.0) P Q n 0.29091743 Peri. 296.47537 -0.18377922 +0.90926963 a 2.2557427 Node 317.05262 -0.58632988 -0.40632396 e 0.5458525 Incl. 33.23680 -0.78895023 +0.09016414 P 3.39 H 18.3 G 0.15 U
|
|
|
|
|
|
Asteroid 2010 MR87
(Preview)
|
Solar System
|
0
|
1772
|
|
|
Orbital elements: 2010 MR87 Earth MOID = 0.1497 AU Epoch 2010 July 23.0 TT = JDT 2455400.5 MPC M 345.93514 (2000.0) P Q n 0.43665024 Peri. 132.29449 +0.81084968 +0.56488521 a 1.7207334 Node 195.52847 -0.53940618 +0.82279027 e 0.3867931 Incl. 34.87056 +0.22707659 -0.06261690 P 2.26 H 19.5 G 0.15 U...
|
|
|
|
|
|
Comet P/2010 N1 (WISE)
(Preview)
|
Comets
|
2
|
2083
|
|
|
Orbital elements: P/2010 N1 (WISE) Epoch 2010 Sept. 1.0 TT = JDT 2455440.5 T 2010 Aug. 16.15323 TT MPC q 1.4945194 (2000.0) P Q n 0.17169881 Peri. 153.49663 -0.04713472 +0.97766538 a 3.2059582 Node 113.21000 -0.95146685 +0.01848364 e 0.5338307 Incl. 12.87647 -0.30412030 -0.20935318 P 5.74 [url...
|
|
|
|
|
|
Asteroid 2010 OL100
(Preview)
|
Asteroids
|
1
|
1796
|
|
|
Orbital elements: 2010 OL100 Earth MOID = 0.1284 AU Epoch 2010 July 23.0 TT = JDT 2455400.5 MPC M 343.23977 (2000.0) P Q n 0.28557282 Peri. 147.93897 +0.94227205 -0.19479689 a 2.2838003 Node 225.96026 +0.16563403 +0.97804308 e 0.6571660 Incl. 22.26387 +0.29101332 +0.07406688 P 3.45 H 19.5 G 0.15...
|
|
|
|
|
|
Comet P/2010 P4 (WISE)
(Preview)
|
Comets
|
2
|
2064
|
|
|
Orbital elements: P/2010 P4 (WISE) T 2010 July 6.4827 TT MPC q 1.862466 (2000.0) P Q n 0.1310914 Peri. 354.4274 +0.9980587 +0.0600063 a 3.837837 Node 2.3361 -0.0282089 +0.6742470 e 0.514710 Incl. 24.1457 -0.0555251 +0.7360640 P 7.52 From 32 observations 2010 Aug. 6-16. [url=http://www.minorp...
|
|
|
|
|
|
Asteroid 2010 PY75
(Preview)
|
Asteroids
|
0
|
1521
|
|
|
Orbital elements: 2010 PY75 Earth MOID = 0.2433 AU Epoch 2010 July 23.0 TT = JDT 2455400.5 MPC M 340.89664 (2000.0) P Q n 0.23926011 Peri. 135.97323 +0.59311749 -0.62077022 a 2.5697400 Node 270.28484 +0.52065928 +0.78145785 e 0.7661335 Incl. 30.84392 +0.61410550 -0.06299179 P 4.12 H 18.4 G 0.15 U...
|
|
|
|
|
|
Asteroid 2010 BK118
(Preview)
|
Asteroids
|
0
|
1988
|
|
|
Orbital elements: 2010 BK118 Epoch 2010 July 23.0 TT = JDT 2455400.5 MPC M 359.87361 (2000.0) P Q n 0.00019576 Peri. 178.65932 +0.99854274 -0.03408703 a 293.7590326 Node 175.92497 -0.05335268 -0.50692942 e 0.9791498 Incl. 143.93124 -0.00811704 -0.86131332 P 5030 H 10.3 G 0.15 [url=http://www...
|
|
|
|
|
|
WISEPC J045853.90+643451.9
(Preview)
|
Stars
|
2
|
2413
|
|
|
NASA's Wide-field Infrared Survey Explorer, or WISE, has eyed its first cool brown dwarf: a tiny, ultra-cold star floating all alone in space. WISE is scanning the whole sky in infrared light, picking up the glow of not just brown dwarfs but also asteroids, stars and galaxies. It has sent millions of...
|
|
|
|
|
|
Comet C/2010 KW7 (WISE)
(Preview)
|
Comets
|
2
|
2239
|
|
|
Comet C/2010 KW7 (WISE) was discovered by the WISE satellite on the 16th May, 2010. The orbital elements of the comet indicate a perihelion passage on the 11th October, 2010, at a distance of 2.5 AU from the Sun. Orbital elements: C/2010 KW7 Epoch 2010 Oct. 11.0 TT = JDT 2455480.5 T 2010 Oct. 11.34791 TT...
|
|
|
|
|
|
Asteroid 2010 SO16
(
1 2
)
(Preview)
|
Asteroids
|
10
|
7541
|
|
|
Title: A long-lived horseshoe companion to the Earth Authors: A. A. Christou, D. J. Asher We present a dynamical investigation of a newly found asteroid, 2010 SO16, and the discovery that it is a horseshoe companion of the Earth. The objects absolute magnitude (H = 20.7) makes this the largest objec...
|
|
|
|
|
|
WISE J0254+0223 and WISE J1741+2553
(Preview)
|
Stars
|
2
|
3077
|
|
|
Title: Two very nearby (d ~ 5 pc) ultracool brown dwarfs detected by their large proper motions from WISE, 2MASS, and SDSS data Authors: R.-D. Scholz, G. Bihain, O. Schnurr, J. Storm (Leibniz-Institut für Astrophysik Potsdam (AIP)) Aims: WISE provides an infrared all-sky survey which aims at comp...
|
|
|
|
|
|
Comet P/2010 JC81 (WISE)
(Preview)
|
Comets
|
0
|
1474
|
|
|
Orbital elements:
P/2010 JC81 (WISE)
Epoch 2011 Apr. 29.0 TT = JDT 2455680.5
T 2011 Apr. 26.56052 TT MPC
q 1.8107299 (2000.0) P Q
n 0.04242593 Peri. 12.57186 +0.75173186 -0.57674865
a 8.1417001 Node 30.76802 +0.53790987 +0.25572724
e 0.7775981 Incl. 38.68999 +0.38151302 +0.77586376
P...
|
|
|
|
|
|
WISE Mission Catalogue
(Preview)
|
Astronomy News
|
1
|
1702
|
|
|
NASA Releases New WISE Mission Catalogue of Entire Infrared Sky NASA unveiled a new atlas and catalogue of the entire infrared sky today showing more than a half billion stars, galaxies and other objects captured by the Wide-field Infrared Survey Explorer (WISE) mission. WISE launched Dec. 14, 20...
|
|
|
|
|